Weather History for Olbia / Costa Smeralda, Italy

Change the Weather History Date:

Saturday, June 7, 2014

  Actual Average Record
Temperature  
Mean Temperature 71 °F -  
Max Temperature 83 °F 83 °F - ()
Min Temperature 59 °F 60 °F - ()
Cooling Degree Days 6    
Growing Degree Days 21 (Base 50)    
Moisture  
Dew Point 62 °F    
Average Humidity 76    
Maximum Humidity 94    
Minimum Humidity 38    
Precipitation  
Precipitation 0.00 in 0.02 in - ()
Sea Level Pressure  
Sea Level Pressure 30.06 in    
Wind  
Wind Speed 4 mph ()    
Max Wind Speed 12 mph    
Max Gust Speed -    
Visibility 9.0 miles    
Events      
T = Trace of Precipitation, MM = Missing Value Source: Averaged Metar Reports

Daily Weather History Graph

Daily Weather History Graph

Search for Another Location

Airport:

Trip Planner

Search our weather history database for the weather conditions in past years. The results will help you decide how hot, cold, wet, or windy it might be!

Date:

Astronomy

Jun. 07, 2014 Rise Set
Actual Time 5:50 AM CEST 8:51 PM CEST
Civil Twilight 5:17 AM CEST 9:24 PM CEST
Nautical Twilight 4:35 AM CEST 10:06 PM CEST
Astronomical Twilight 3:45 AM CEST 10:56 PM CEST
Moon 2:50 PM CEST (6/7) 2:06 AM CEST (6/7)
Length of Visible Light 16h 07m
Length of Day
15h 00m
Waxing Gibbous, 65% of the Moon is Illuminated
Jun 7
Waxing Gibbous
Jun 13
Full
Jun 19
Last Quarter
Jun 27
New
Jul 5
First Quarter

Hourly Weather History & Observations

Time (CEST) Temp. Heat Index Dew Point Humidity Pressure Visibility Wind Dir Wind Speed Gust Speed Precip Events Conditions
12:20 AM 66.2 °F - 64.4 °F 94% 30.06 in - Variable 2.3 mph - N/A   Clear
12:50 AM 68.0 °F - 64.4 °F 88% 30.06 in - SW 2.3 mph - N/A   Clear
1:20 AM 66.2 °F - 64.4 °F 94% 30.06 in - Variable 1.2 mph - N/A   Clear
1:50 AM 66.2 °F - 62.6 °F 88% 30.06 in - SSE 2.3 mph - N/A   Clear
2:00 AM 66 °F - 64 °F 89% 30.04 in 16 mi South 3.5 mph - -   Clear
2:20 AM 66.2 °F - 64.4 °F 94% 30.06 in - SSW 4.6 mph - N/A   Clear
2:50 AM 64.4 °F - 62.6 °F 94% 30.04 in - SSW 3.5 mph - N/A   Clear
3:20 AM 64.4 °F - 62.6 °F 94% 30.04 in - SSW 3.5 mph - N/A   Clear
3:50 AM 62.6 °F - 60.8 °F 94% 30.04 in - SSW 2.3 mph - N/A   Clear
4:20 AM 62.6 °F - 60.8 °F 94% 30.04 in - SSW 3.5 mph - N/A   Clear
4:50 AM 62.6 °F - 60.8 °F 94% 30.04 in - Variable 1.2 mph - N/A   Clear
5:00 AM 62 °F - 60 °F 91% 30.04 in 16 mi Calm Calm - -   Clear
5:20 AM 62.6 °F - 60.8 °F 94% 30.04 in - Calm Calm - N/A   Clear
5:50 AM 62.6 °F - 60.8 °F 94% 30.04 in 5.0 mi SSW 2.3 mph - N/A   Unknown
6:20 AM 60.8 °F - 59.0 °F 94% 30.04 in 5.0 mi Calm Calm - N/A   Unknown
6:50 AM 60.8 °F - 59.0 °F 94% 30.04 in - SW 2.3 mph - N/A   Clear
7:20 AM 62.6 °F - 60.8 °F 94% 30.04 in - Variable 2.3 mph - N/A   Clear
7:50 AM 66.2 °F - 64.4 °F 94% 30.04 in 6.2 mi Calm Calm - N/A   Partly Cloudy
8:00 AM 67 °F - 64 °F 85% 30.06 in 7 mi NE 3.5 mph - -   Scattered Clouds
8:20 AM 68.0 °F - 64.4 °F 88% 30.06 in 6.2 mi Variable 2.3 mph - N/A   Partly Cloudy
9:20 AM 71.6 °F - 66.2 °F 83% 30.06 in 6.2 mi ENE 5.8 mph - N/A   Partly Cloudy
9:50 AM 69.8 °F - 66.2 °F 88% 30.06 in 6.2 mi ENE 5.8 mph - N/A   Partly Cloudy
10:20 AM 73.4 °F - 66.2 °F 78% 30.06 in 6.2 mi NE 9.2 mph - N/A   Partly Cloudy
10:50 AM 73.4 °F - 66.2 °F 78% 30.06 in - NE 10.4 mph - N/A   Clear
11:00 AM 73 °F - 65 °F 71% 30.06 in 7 mi NE 9.2 mph - -   Scattered Clouds
11:20 AM 73.4 °F - 66.2 °F 78% 30.06 in - ENE 10.4 mph - N/A   Clear
11:50 AM 75.2 °F - 66.2 °F 73% 30.06 in - NE 10.4 mph - N/A   Clear
12:20 PM 77.0 °F - 66.2 °F 69% 30.06 in - NE 11.5 mph - N/A   Clear
12:50 PM 77.0 °F - 64.4 °F 65% 30.06 in - NE 10.4 mph - N/A   Clear
1:20 PM 78.8 °F - 64.4 °F 61% 30.06 in - NE 11.5 mph - N/A   Clear
1:50 PM 80.6 °F 81.8 °F 62.6 °F 54% 30.06 in - NE 10.4 mph - N/A   Clear
2:00 PM 82 °F - 62 °F 41% 30.06 in 12 mi ENE 9.2 mph - -  
2:20 PM 82.4 °F 82.5 °F 59.0 °F 45% 30.04 in - ENE 9.2 mph - N/A   Clear
2:50 PM 82.4 °F 82.0 °F 57.2 °F 42% 30.04 in - ENE 10.4 mph - N/A   Clear
3:50 PM 82.4 °F 82.9 °F 60.8 °F 48% 30.04 in - NE 11.5 mph - N/A   Clear
4:20 PM 80.6 °F 81.5 °F 60.8 °F 51% 30.04 in - NE 11.5 mph - N/A   Clear
5:00 PM 81 °F - 60 °F 38% 30.04 in 12 mi NE 9.2 mph - -  
5:20 PM 80.6 °F 81.1 °F 59.0 °F 48% 30.04 in - NE 8.1 mph - N/A   Clear
5:50 PM 80.6 °F 80.8 °F 57.2 °F 45% 30.04 in - NE 8.1 mph - N/A   Clear
6:50 PM 78.8 °F - 57.2 °F 47% 30.04 in - ENE 5.8 mph - N/A   Clear
7:20 PM 78.8 °F - 59.0 °F 51% 30.06 in - NE 4.6 mph - N/A   Clear
7:50 PM 77.0 °F - 60.8 °F 57% 30.06 in - ENE 5.8 mph - N/A   Clear
8:00 PM 76 °F - 62 °F 52% 30.06 in 12 mi ENE 5.8 mph - -  
8:20 PM 73.4 °F - 62.6 °F 69% 30.06 in - NE 4.6 mph - N/A   Clear
8:50 PM 71.6 °F - 62.6 °F 73% 30.06 in - Variable 2.3 mph - N/A   Clear
9:20 PM 69.8 °F - 62.6 °F 78% 30.06 in - East 5.8 mph - N/A   Clear
9:50 PM 68.0 °F - 62.6 °F 83% 30.09 in - Variable 1.2 mph - N/A   Clear
10:20 PM 66.2 °F - 60.8 °F 83% 30.09 in - Variable 1.2 mph - N/A   Clear
10:50 PM 66.2 °F - 60.8 °F 83% 30.09 in - Variable 1.2 mph - N/A   Clear
11:00 PM 65 °F - 61 °F 83% 30.09 in 12 mi SSW 2.3 mph - -  
11:20 PM 64.4 °F - 60.8 °F 88% 30.09 in - SSW 3.5 mph - N/A   Clear
11:50 PM 62.6 °F - 59.0 °F 88% 30.09 in - Calm Calm - N/A   Clear